Wetbulb
53.28 53.60 53.92 53.95 53.96 54.06 54.14 54.24 54.31 54.42 54.78 54.91 55.02 54.93 54.67 54.74 55.07 53.55 47.45 53.95 56.33 61.21 60.67 54.92 54.30 59.98 61.03 58.07 58.70 59.14 51.35 48.36 48.42 47.27 48.54 52.68 53.25 55.88 59.58 58.33 59.78 60.46 61.22 62.48 67.51
53.65 53.84 53.98 53.87 53.93 53.94 53.93 53.93 54.08 54.36 54.66 54.71 54.80 54.52 54.45 54.34 53.24 48.81 55.84 57.55 58.81 60.10 54.63 52.09 50.91 55.78 56.07 57.17 57.46 55.01 51.45 50.96 53.08 52.25 50.66 52.25 53.15 55.36 56.56 57.52 58.99 59.85 62.24 62.82 64.68
53.44 53.55 53.65 53.75 53.85 53.71 53.82 53.75 54.04 54.61 54.86 54.83 54.60 54.53 54.28 54.61 48.14 51.30 56.21 56.78 58.23 58.15 53.97 54.81 51.32 55.03 52.72 55.50 55.73 55.53 51.89 53.66 54.32 54.24 53.63 52.36 53.31 55.45 55.14 55.51 59.13 59.23 60.67 62.42 62.54
53.31 53.54 53.43 53.46 53.57 53.77 53.92 54.42 54.82 54.97 54.88 54.61 54.45 54.22 54.22 52.52 40.17 54.87 56.66 56.54 56.64 55.09 54.30 53.21 51.98 49.86 51.89 51.73 55.42 51.90 55.50 55.83 55.69 55.74 54.21 52.54 54.60 53.94 54.54 55.16 59.09 59.75 61.37 61.37 62.17
53.00 53.23 53.34 53.31 53.37 53.59 53.92 54.37 54.92 55.13 54.87 54.67 54.53 54.06 53.74 47.77 44.76 50.86 54.72 56.93 54.64 52.51 49.45 49.73 50.19 49.35 48.19 51.94 53.86 52.70 53.82 55.48 55.84 55.75 55.24 55.43 54.49 55.25 55.93 58.17 59.17 59.95 61.20 61.72 62.81
52.66 52.74 52.74 52.74 53.07 53.38 54.16 54.65 54.80 54.83 54.81 55.38 54.72 53.48 51.16 44.01 51.32 53.38 54.46 54.51 53.59 52.01 49.73 49.20 49.46 51.73 48.50 49.46 50.58 53.36 53.60 53.97 55.30 54.72 55.60 53.53 54.09 56.43 58.14 60.45 60.39 60.98 61.63 62.03 62.14
52.13 52.13 52.19 52.34 52.63 53.05 53.85 54.36 54.33 54.66 55.29 56.14 54.79 53.89 49.89 46.78 53.64 55.78 55.21 53.73 53.77 52.18 49.74 50.60 50.40 47.95 50.92 48.03 51.11 51.18 49.01 51.43 53.32 54.42 53.07 55.60 51.97 53.92 58.42 60.27 60.05 60.28 61.11 61.62 62.33
52.86 52.23 51.71 52.09 52.55 53.01 53.63 53.84 54.05 55.17 56.35 55.49 54.76 53.25 47.63 53.65 56.10 54.57 54.54 52.84 53.81 53.80 52.01 52.39 51.93 48.00 46.99 50.40 49.56 46.71 47.90 44.78 50.78 52.85 53.97 52.89 48.47 55.05 58.17 58.26 58.42 59.60 60.29 60.80 61.96
52.77 52.35 51.71 51.75 52.23 52.85 53.35 53.25 54.43 55.60 55.94 55.31 53.98 51.58 45.56 54.05 50.52 52.82 53.73 50.86 52.08 52.20 52.21 51.87 50.05 46.51 45.40 43.34 43.15 46.00 41.66 44.32 46.93 52.10 51.82 50.49 49.02 54.73 57.37 57.76 57.39 58.89 59.54 59.99 61.20
51.73 51.83 51.81 51.37 51.85 52.17 52.29 53.60 55.50 55.57 55.36 55.18 54.18 48.48 48.43 45.93 50.39 51.68 53.49 52.16 49.72 49.51 48.35 48.06 46.90 43.70 42.91 40.98 36.51 40.50 42.60 44.15 44.92 49.82 50.72 49.38 48.92 53.06 55.68 56.28 57.03 58.15 58.80 59.54 60.46
51.29 51.27 51.23 51.10 51.35 51.92 53.10 54.01 51.47 48.71 49.81 45.70 45.83 45.51 46.21 50.19 52.09 49.65 52.19 50.40 49.42 47.14 42.27 45.99 41.80 39.65 41.42 42.94 42.23 42.79 43.16 43.89 46.65 49.54 49.23 49.23 49.07 51.27 54.00 54.18 55.53 56.91 58.03 58.96 59.68
51.75 51.23 50.76 50.95 51.23 51.66 53.12 49.48 48.35 49.40 43.57 48.14 47.73 47.44 49.27 49.76 44.89 47.93 51.40 46.01 45.07 41.46 44.02 42.00 39.00 42.90 43.67 42.84 41.20 41.35 41.08 42.17 46.28 47.54 48.40 48.19 48.46 51.47 53.25 53.79 55.62 56.37 57.13 58.09 59.23
51.57 50.96 51.28 51.01 51.42 52.70 52.16 50.09 53.84 53.11 44.45 43.81 46.73 45.76 46.21 48.10 44.52 45.36 48.44 47.01 43.93 41.73 41.43 38.83 41.25 43.99 41.77 40.64 39.11 40.16 39.70 40.97 42.20 46.19 48.27 47.21 46.10 48.91 52.46 54.39 55.35 56.09 56.93 57.35 57.60
51.56 51.20 51.34 51.15 49.72 52.53 50.91 52.78 54.21 53.05 40.54 39.28 42.90 45.41 46.71 47.35 43.21 48.55 49.52 46.80 44.11 40.74 41.92 40.49 43.06 41.47 40.64 38.94 40.08 36.46 41.84 41.64 41.68 42.03 39.03 46.93 38.29 46.80 49.92 50.99 52.91 54.41 55.67 56.25 56.87
51.22 51.07 50.76 49.61 51.71 51.73 51.42 54.29 53.84 50.69 30.41 40.14 42.35 49.33 47.39 43.57 44.26 44.86 49.50 47.46 42.16 42.13 42.82 39.88 40.41 39.57 38.45 39.03 41.46 38.45 42.60 41.47 42.48 40.86 41.49 42.00 40.88 44.68 48.94 48.37 50.90 53.41 54.56 55.53 55.88
51.24 50.72 49.99 51.42 54.81 52.81 54.32 53.90 50.95 38.22 27.48 37.80 42.39 41.75 42.12 43.19 43.12 44.65 44.93 48.90 48.42 43.52 43.97 42.80 45.93 43.49 41.41 41.99 41.88 43.07 40.88 41.20 41.47 40.89 35.61 39.94 40.05 41.23 44.89 47.78 50.07 52.52 53.14 53.74 54.97
50.69 49.91 51.14 53.82 51.04 54.43 54.85 49.98 38.13 33.07 39.91 36.96 38.11 41.33 40.82 39.31 40.34 41.25 40.67 40.18 39.03 34.91 36.17 40.40 40.82 43.66 43.89 38.48 42.01 40.69 37.23 30.14 29.77 30.65 32.11 42.01 39.91 42.48 48.17 49.57 50.68 51.37 52.05 53.20 55.07
49.73 47.63 50.68 54.82 56.28 54.51 52.31 43.08 31.03 35.56 36.13 41.24 40.06 40.57 36.59 39.53 39.50 39.95 39.34 37.22 41.59 39.27 36.10 33.52 31.87 39.60 42.88 39.93 38.08 38.20 36.75 31.59 25.28 29.37 33.27 40.57 36.14 42.09 48.86 50.98 52.17 52.32 53.24 53.64 56.21
48.45 55.03 55.58 55.18 55.45 54.13 46.93 37.18 36.06 36.87 38.85 37.85 39.50 35.80 36.21 38.31 38.39 38.35 38.70 37.20 39.61 40.93 33.03 32.91 33.00 41.83 42.32 42.75 41.73 38.11 34.21 39.74 33.92 35.87 34.76 38.40 41.53 45.50 48.34 48.93 50.60 50.20 51.77 53.00 56.38
51.44 53.03 52.19 54.37 55.31 51.90 43.70 34.89 38.22 40.68 40.67 39.97 33.53 36.41 33.84 36.75 36.60 37.01 36.86 39.21 38.52 41.06 42.10 37.92 31.01 39.41 40.15 42.99 42.76 40.32 40.87 32.44 34.79 26.52 27.39 35.47 38.33 39.32 44.57 46.08 48.85 50.30 51.27 53.21 55.87
51.38 48.10 51.22 53.78 53.54 47.31 39.77 38.41 39.28 42.15 42.12 38.19 36.53 35.60 36.81 35.49 36.94 35.75 35.63 39.45 40.59 40.73 42.09 39.69 35.53 35.85 40.00 37.07 35.23 37.73 36.61 36.89 36.66 35.20 29.29 31.85 36.98 46.55 46.74 48.68 49.41 50.03 51.38 53.21 54.48
48.22 44.51 52.01 52.10 43.78 44.71 39.44 38.40 39.37 40.71 42.70 40.57 40.62 38.30 36.59 37.11 35.75 35.89 35.56 38.51 42.61 41.80 37.30 41.04 37.17 32.65 35.66 40.55 41.69 39.48 35.67 34.89 32.24 32.17 35.66 35.69 38.43 48.90 49.69 50.18 50.46 50.24 51.94 53.45 54.79
41.84 43.31 51.79 49.83 38.01 37.52 39.68 38.81 40.21 39.71 39.52 39.15 38.33 39.43 40.20 36.42 32.28 36.19 37.03 41.31 42.00 40.86 38.62 41.05 36.21 30.80 33.22 38.01 41.10 37.38 38.28 39.56 39.25 38.19 32.60 33.55 37.58 48.52 48.91 48.75 49.45 50.42 51.70 52.95 54.19
44.72 41.94 46.56 46.75 44.30 37.72 36.18 37.68 36.42 41.63 40.57 40.72 39.60 40.82 38.22 36.66 37.60 34.83 36.42 39.71 41.67 40.77 41.42 41.28 37.18 32.79 29.65 33.67 37.27 34.14 36.69 39.22 38.31 33.68 34.73 36.39 39.61 44.52 46.88 47.09 48.90 50.43 51.70 51.87 53.28
44.61 41.91 42.18 40.32 41.91 38.76 38.96 37.07 34.88 34.81 40.62 41.37 38.42 38.08 36.59 33.14 36.35 35.97 38.18 39.16 41.23 42.11 41.00 38.70 33.71 36.55 37.27 37.99 37.67 36.46 36.16 37.29 36.75 37.76 34.00 37.42 38.84 43.10 45.89 47.11 48.51 50.12 50.15 50.20 52.18
41.82 40.70 43.70 39.28 40.18 38.24 37.54 37.97 35.92 37.27 37.16 36.52 36.21 37.32 37.28 33.97 35.46 33.69 36.66 37.46 36.20 39.95 39.00 40.85 32.45 36.34 34.14 37.51 37.47 35.22 37.23 37.80 37.96 38.20 38.60 39.14 38.89 45.11 46.66 47.31 47.06 48.04 48.75 50.20 52.61
41.17 41.92 40.04 39.64 37.90 36.07 39.32 36.64 36.34 38.68 39.47 40.46 38.72 38.21 36.31 39.18 42.75 43.54 43.09 42.54 39.82 36.57 35.43 36.40 35.09 33.04 30.20 35.74 34.93 31.74 37.22 38.42 39.17 40.67 40.32 36.88 41.74 45.50 45.14 46.09 47.45 48.41 49.15 50.21 52.93
MSLP
1021.97 1021.58 1021.21 1020.89 1020.57 1020.23 1019.84 1019.47 1019.16 1018.78 1018.38 1018.03 1017.62 1017.16 1016.72 1016.37 1015.61 1013.97 1012.92 1013.82 1013.37 1013.08 1012.81 1011.59 1011.05 1010.83 1010.10 1009.22 1008.78 1008.42 1006.63 1004.48 1004.08 1003.98 1003.92 1003.65 1002.73 1002.26 1002.49 1002.30 1002.07 1002.06 1002.13 1002.67 1002.87
1021.89 1021.53 1021.19 1020.83 1020.44 1020.05 1019.70 1019.39 1019.02 1018.59 1018.17 1017.82 1017.34 1016.86 1016.52 1016.18 1014.78 1013.26 1014.03 1013.91 1013.77 1013.16 1011.93 1011.09 1010.35 1010.23 1009.26 1008.57 1008.18 1007.46 1005.60 1004.13 1004.14 1004.14 1004.16 1003.69 1002.88 1002.07 1002.27 1001.71 1001.52 1001.82 1002.02 1002.43 1002.46
1021.95 1021.50 1021.09 1020.66 1020.25 1019.88 1019.56 1019.14 1018.73 1018.24 1017.89 1017.60 1017.16 1016.78 1016.42 1016.03 1013.97 1012.84 1013.99 1013.93 1013.56 1012.70 1011.72 1011.24 1010.15 1009.36 1008.46 1007.67 1007.24 1006.43 1004.71 1004.30 1004.38 1004.50 1004.61 1004.12 1003.05 1002.46 1002.09 1001.40 1001.12 1001.28 1001.56 1001.86 1002.43
1021.84 1021.34 1020.88 1020.44 1020.00 1019.56 1019.14 1018.74 1018.32 1017.96 1017.60 1017.22 1016.87 1016.53 1016.13 1015.01 1012.80 1012.90 1013.76 1013.72 1013.24 1012.33 1011.43 1010.66 1010.04 1008.78 1007.82 1006.64 1006.67 1006.15 1005.05 1004.80 1004.44 1004.66 1004.80 1004.48 1003.92 1002.53 1001.90 1001.46 1001.41 1001.60 1002.09 1002.12 1002.31
1021.83 1021.33 1020.83 1020.30 1019.79 1019.30 1018.83 1018.42 1018.10 1017.70 1017.21 1016.81 1016.55 1016.32 1015.42 1013.35 1012.63 1013.22 1013.75 1013.22 1012.51 1011.80 1011.17 1010.50 1009.67 1008.68 1007.08 1006.40 1006.23 1004.97 1004.87 1004.70 1004.98 1004.98 1004.67 1004.76 1003.82 1002.89 1001.75 1001.46 1001.67 1001.66 1002.00 1001.95 1002.02
1021.71 1021.24 1020.74 1020.21 1019.63 1019.07 1018.53 1018.10 1017.87 1017.46 1016.92 1016.57 1016.43 1016.32 1014.80 1012.59 1012.97 1013.16 1013.08 1012.84 1012.35 1011.73 1011.32 1010.78 1009.81 1008.91 1007.79 1006.59 1005.59 1004.95 1004.61 1004.49 1004.39 1004.29 1004.65 1004.74 1003.53 1003.30 1001.68 1001.54 1001.38 1001.57 1001.64 1001.53 1001.57
1021.61 1021.09 1020.51 1019.97 1019.37 1018.75 1018.21 1017.84 1017.49 1017.14 1016.68 1016.31 1016.33 1015.66 1014.13 1012.86 1012.90 1012.74 1012.52 1012.29 1012.29 1012.08 1011.17 1010.83 1010.46 1009.84 1008.17 1007.30 1006.37 1005.52 1004.74 1004.20 1003.37 1003.41 1003.54 1004.54 1003.25 1000.56 1001.59 1001.32 1000.98 1000.83 1000.89 1001.09 1001.15
1021.44 1020.98 1020.44 1019.83 1019.22 1018.56 1017.91 1017.60 1017.13 1016.53 1016.12 1016.14 1016.20 1015.17 1012.73 1012.55 1012.60 1012.06 1011.82 1011.59 1011.94 1012.10 1011.85 1011.18 1010.60 1009.62 1008.73 1007.82 1006.41 1005.58 1004.67 1003.02 1001.77 1002.79 1002.68 1004.09 1001.18 998.89 1000.26 1000.72 1000.28 1000.26 1000.18 1000.21 1000.31
1021.09 1020.58 1020.00 1019.39 1018.80 1018.14 1017.44 1016.92 1016.44 1016.14 1016.10 1016.12 1015.45 1014.41 1011.92 1012.49 1011.83 1011.75 1011.71 1011.41 1011.26 1011.04 1011.39 1011.28 1010.52 1009.22 1008.20 1007.45 1006.37 1004.78 1002.59 1001.24 1001.01 1001.08 1002.32 1003.05 1000.33 999.31 999.60 998.99 999.36 999.33 999.47 999.49 999.41
1020.87 1020.35 1019.80 1019.25 1018.67 1018.00 1017.36 1016.45 1016.23 1016.04 1015.77 1015.49 1015.00 1014.18 1012.13 1011.83 1011.82 1011.73 1011.27 1011.33 1011.03 1010.70 1010.51 1010.54 1009.56 1008.20 1007.30 1006.64 1004.02 1003.25 1001.85 1001.28 1000.27 1000.32 1001.21 1001.39 999.85 999.61 998.81 998.88 998.67 998.72 998.73 998.85 998.96
1020.78 1020.24 1019.67 1019.07 1018.50 1017.92 1016.81 1015.65 1015.40 1014.84 1014.14 1013.87 1013.62 1013.14 1012.35 1011.93 1011.84 1011.48 1011.14 1011.00 1010.80 1010.55 1009.62 1008.83 1008.40 1006.54 1006.35 1005.75 1004.85 1004.19 1002.63 1000.67 1000.07 1000.30 1000.02 999.64 999.21 998.95 999.15 998.74 998.61 998.45 998.34 998.38 998.60
1020.55 1019.96 1019.35 1018.74 1018.17 1017.59 1016.74 1015.17 1015.86 1016.13 1014.33 1013.38 1013.31 1013.05 1012.70 1012.69 1011.92 1010.81 1011.30 1010.91 1010.44 1009.71 1009.14 1008.71 1007.17 1007.13 1006.64 1006.22 1005.19 1004.26 1003.22 1001.67 1001.41 1001.72 1000.21 999.44 997.96 998.37 998.42 997.52 997.58 997.66 997.79 997.98 998.00
1020.16 1019.46 1018.82 1018.26 1017.77 1017.00 1015.83 1015.74 1015.90 1015.75 1014.19 1013.00 1012.65 1012.29 1011.91 1012.20 1011.23 1010.69 1010.98 1010.51 1009.91 1009.28 1008.55 1007.84 1006.90 1006.85 1006.93 1006.46 1005.97 1004.85 1003.62 1002.99 1002.30 1001.72 1000.79 1000.11 998.06 997.66 997.25 997.06 997.11 997.54 997.81 998.16 998.03
1019.80 1018.99 1018.33 1017.84 1017.84 1016.45 1015.74 1016.21 1016.02 1015.86 1013.48 1012.58 1011.90 1011.61 1011.40 1011.14 1010.71 1010.39 1010.45 1010.54 1009.66 1008.97 1008.58 1007.59 1006.95 1006.80 1006.70 1006.24 1005.94 1004.51 1004.66 1003.79 1002.99 1002.15 1000.14 1000.28 997.33 997.00 996.81 996.63 996.62 996.55 996.85 997.12 997.16
1019.35 1018.58 1017.99 1017.64 1016.80 1015.87 1016.49 1016.31 1016.10 1015.72 1012.71 1012.40 1011.56 1011.59 1011.11 1010.99 1010.72 1009.75 1009.96 1009.83 1009.37 1008.84 1008.75 1007.06 1006.89 1006.55 1006.16 1005.71 1005.24 1004.37 1004.29 1003.66 1002.92 1002.14 1001.35 999.82 998.00 995.94 996.07 995.29 995.39 995.61 996.02 996.23 996.32
1019.07 1018.40 1017.99 1017.44 1016.70 1016.46 1016.44 1016.36 1016.08 1014.31 1012.23 1011.91 1011.75 1011.30 1010.89 1010.30 1010.07 1009.77 1009.53 1009.68 1009.26 1008.89 1008.08 1006.92 1006.64 1006.58 1006.05 1005.89 1005.16 1004.63 1004.15 1003.50 1002.98 1002.04 1000.25 998.60 998.54 995.83 995.76 995.18 995.13 995.06 995.32 995.56 995.38
1018.78 1018.19 1017.85 1016.89 1016.07 1016.49 1016.27 1015.69 1014.22 1012.57 1012.66 1012.04 1011.90 1011.65 1011.18 1010.27 1009.95 1009.90 1009.46 1008.89 1009.20 1009.08 1007.64 1007.17 1005.99 1005.84 1006.23 1006.51 1005.65 1004.69 1004.40 1003.39 1002.56 1001.23 998.79 998.22 997.67 995.91 994.79 994.90 994.61 994.31 995.02 995.47 995.17
1018.43 1018.10 1017.61 1016.82 1016.50 1016.45 1015.76 1014.54 1013.40 1012.89 1012.62 1012.84 1012.47 1011.84 1010.99 1010.86 1010.35 1010.22 1009.74 1009.07 1009.46 1010.10 1009.28 1007.82 1006.52 1006.46 1006.55 1006.60 1005.40 1004.32 1003.71 1002.70 1001.18 999.93 999.00 998.50 996.36 995.15 995.89 995.44 995.28 995.21 995.31 995.54 995.17
1017.95 1016.86 1016.33 1016.40 1016.47 1016.15 1014.90 1013.68 1012.96 1013.43 1013.85 1013.47 1012.54 1011.64 1011.10 1011.10 1011.01 1010.41 1009.85 1009.61 1009.69 1009.89 1010.03 1008.77 1007.30 1007.13 1006.75 1006.27 1005.89 1004.46 1003.50 1003.23 1001.53 1000.00 997.87 996.22 996.46 996.53 995.47 995.20 995.27 995.25 995.49 995.49 995.41
1017.52 1016.41 1016.00 1016.44 1016.29 1015.45 1014.25 1013.98 1013.99 1014.49 1014.56 1014.04 1013.12 1012.68 1011.82 1011.35 1011.15 1010.58 1010.10 1009.96 1010.10 1010.20 1010.37 1009.57 1008.45 1006.70 1006.85 1006.66 1005.61 1004.80 1004.46 1003.35 1001.71 1000.44 997.75 995.86 994.64 994.35 994.10 994.66 995.05 994.99 995.77 995.70 995.35
1017.43 1015.93 1016.42 1016.41 1016.07 1014.76 1014.46 1014.42 1014.78 1014.87 1015.05 1014.53 1013.81 1013.32 1012.75 1012.29 1011.71 1011.20 1010.58 1010.21 1010.18 1010.19 1010.10 1009.49 1008.94 1007.14 1006.33 1005.86 1005.48 1004.90 1003.92 1003.79 1003.02 1000.56 998.30 995.69 994.00 993.62 993.63 993.20 994.76 995.88 996.22 995.72 995.44
1017.38 1015.65 1016.43 1016.31 1015.56 1015.54 1014.85 1015.53 1016.21 1015.09 1015.02 1014.79 1014.44 1013.94 1013.55 1013.18 1012.37 1011.66 1010.79 1010.33 1010.37 1010.62 1009.92 1009.42 1008.92 1007.14 1005.54 1005.03 1005.35 1005.61 1005.56 1004.85 1003.08 1001.55 999.11 996.73 994.37 994.25 993.85 995.19 996.01 996.46 996.15 996.21 995.83
1018.26 1016.91 1016.49 1016.24 1015.83 1015.83 1015.86 1015.63 1015.80 1015.31 1015.05 1014.84 1014.55 1014.32 1013.98 1013.58 1013.12 1011.82 1011.48 1011.28 1011.37 1011.00 1010.43 1010.17 1008.52 1006.95 1004.63 1004.60 1004.57 1004.70 1004.43 1003.86 1003.38 1001.85 1001.06 997.20 995.01 995.34 995.57 995.34 995.71 996.39 996.57 996.49 996.01
1018.47 1016.81 1016.37 1016.64 1017.16 1016.92 1016.42 1015.76 1015.72 1015.61 1015.17 1015.15 1014.88 1014.57 1014.05 1013.46 1013.24 1012.48 1011.43 1011.29 1011.56 1011.52 1011.72 1011.71 1009.89 1008.28 1006.27 1004.56 1004.72 1004.75 1004.73 1003.84 1003.12 1002.13 999.92 998.50 996.12 995.15 995.26 995.10 995.87 996.47 996.89 996.50 996.21
1019.25 1018.50 1018.63 1017.16 1016.84 1017.34 1016.98 1016.56 1016.10 1015.77 1015.40 1015.15 1014.39 1014.40 1014.26 1013.81 1012.53 1011.46 1011.09 1011.15 1011.49 1011.35 1011.66 1012.02 1009.91 1008.25 1006.49 1005.52 1005.10 1004.67 1004.29 1003.89 1003.03 1002.10 1000.77 999.12 997.63 996.46 996.17 996.36 996.68 997.13 996.98 996.35 995.96
1020.29 1020.05 1019.13 1018.76 1018.18 1017.55 1016.98 1016.04 1016.01 1015.77 1015.76 1015.08 1014.56 1014.29 1014.13 1013.44 1012.78 1011.56 1011.27 1011.31 1011.69 1011.43 1011.55 1011.33 1010.01 1008.46 1006.89 1005.78 1004.92 1004.06 1003.59 1003.08 1002.31 1001.97 1001.07 1000.30 998.88 998.29 997.90 997.64 997.23 996.90 996.64 996.04 995.88
1022.10 1021.94 1021.20 1018.95 1018.07 1017.85 1016.78 1016.66 1016.50 1016.34 1015.35 1014.88 1014.92 1014.32 1013.41 1012.48 1011.71 1011.06 1010.80 1010.79 1011.46 1011.91 1011.98 1011.58 1010.06 1008.97 1006.99 1005.68 1005.13 1003.86 1002.43 1002.11 1001.73 1001.05 1000.48 999.39 998.55 998.01 997.35 997.08 996.91 996.72 996.48 996.22 996.09
Wind_Speed
14 14 14 14 14 14 14 14 14 14 14 15 15 16 17 17 20 11 6 9 9 14 12 9 9 10 12 14 15 14 13 16 21 16 15 10 14 16 4 11 5 1 4 6 4
15 15 15 15 15 15 15 14 14 13 13 14 15 15 16 17 15 4 8 7 12 15 8 12 14 14 13 16 12 15 16 23 16 12 13 17 18 11 7 13 12 8 7 3 6
16 16 16 16 17 16 15 14 14 14 13 13 13 14 15 16 7 6 3 8 14 15 5 9 14 15 21 16 21 22 25 19 19 13 15 19 19 16 14 17 13 11 8 5 5
17 18 18 18 18 18 17 16 15 13 13 12 12 12 13 8 3 6 6 9 10 8 7 5 10 19 19 26 20 26 24 25 21 16 14 20 19 23 21 22 21 7 11 14 12
18 18 18 19 19 18 18 18 17 16 15 12 10 9 10 5 6 6 5 5 3 3 5 8 11 16 25 18 24 29 28 22 20 20 19 15 24 23 23 22 21 18 16 17 18
18 19 19 19 20 20 19 18 15 15 14 11 7 7 6 2 4 2 8 8 4 6 3 7 9 10 17 23 26 21 25 29 26 20 18 23 26 25 21 22 21 20 21 20 16
18 19 20 20 20 21 20 18 16 14 11 10 5 6 5 8 3 7 6 7 5 5 8 4 11 13 6 17 22 24 28 25 21 26 28 18 24 38 24 26 21 19 19 19 18
16 17 19 20 20 21 22 20 18 13 7 6 7 4 2 2 7 7 8 7 3 7 8 8 8 16 18 17 18 18 23 25 31 24 24 23 31 37 25 26 28 26 23 21 20
18 18 21 21 22 23 23 23 15 2 6 8 7 5 4 5 8 8 6 10 11 9 6 8 8 15 16 19 18 22 24 33 31 30 24 19 33 34 27 20 19 20 19 19 18
20 19 20 21 21 22 23 20 8 10 6 4 3 6 2 9 13 15 5 8 9 10 11 11 9 14 16 17 24 25 30 29 30 23 28 30 34 28 19 11 20 22 21 20 17
21 20 20 20 20 18 15 7 6 9 6 8 6 5 5 11 11 5 7 7 5 9 13 15 13 17 16 20 29 28 30 26 28 22 26 28 34 32 28 27 24 22 19 19 19
22 21 21 19 19 19 9 5 6 5 8 6 8 7 8 5 8 6 2 5 8 12 12 12 19 19 19 19 24 28 30 32 22 16 22 28 33 27 27 27 27 26 23 23 21
23 22 20 17 16 9 4 5 2 8 7 3 1 5 4 6 11 10 4 10 13 15 11 17 19 17 15 17 20 25 27 26 29 15 19 21 29 29 28 27 24 21 22 21 21
23 21 18 13 9 3 2 3 6 5 6 5 5 4 5 10 8 9 2 10 9 11 13 16 16 17 19 21 21 24 24 27 26 26 19 22 22 24 26 27 28 26 22 20 19
25 23 14 6 3 1 5 6 5 5 5 2 2 4 10 6 9 2 4 7 13 17 13 17 17 16 19 19 21 23 21 26 20 24 25 29 18 15 16 20 19 18 19 20 19
26 22 5 4 2 4 5 4 5 8 1 3 2 7 12 9 7 5 9 5 11 12 16 21 16 19 17 17 19 17 17 21 18 21 24 32 25 22 22 25 22 20 16 15 15
27 15 6 1 5 4 5 5 7 5 3 3 7 11 14 9 8 8 13 11 8 9 13 18 9 12 16 18 19 16 17 14 15 14 16 21 24 20 7 6 12 12 5 5 6
24 7 5 3 4 4 5 6 5 5 5 7 9 16 6 8 7 13 12 12 4 7 12 9 7 7 6 19 18 19 18 14 21 17 20 22 15 16 16 24 14 10 10 3 6
22 3 3 4 4 5 7 5 6 6 5 10 14 6 1 4 6 8 13 9 5 8 8 13 7 7 13 11 14 21 19 21 24 24 21 17 23 22 7 9 9 3 5 3 8
5 3 4 8 5 7 5 4 4 3 7 7 6 3 9 12 11 10 10 1 7 5 10 8 12 4 2 11 20 21 11 13 15 15 17 18 21 12 26 27 17 5 1 7 10
4 4 6 8 5 3 2 4 5 3 7 6 9 12 12 13 10 11 7 12 3 10 13 15 6 12 9 6 8 14 19 10 17 13 16 14 16 18 11 13 12 5 5 11 13
4 2 5 6 2 1 4 6 3 4 4 8 7 7 8 9 14 13 12 8 9 11 16 15 8 14 17 4 10 13 9 6 12 14 16 15 4 2 14 15 8 3 9 12 14
5 3 3 6 3 4 6 5 4 7 7 5 5 6 8 11 7 7 10 9 15 14 7 10 7 12 10 6 9 8 13 12 13 16 15 16 9 10 10 8 5 9 13 14 15
5 2 3 3 2 4 6 1 4 5 10 4 11 12 11 12 11 10 17 9 14 17 13 12 14 14 14 20 10 10 10 12 12 11 17 16 21 14 17 8 12 14 16 17 16
4 4 5 4 1 7 6 4 5 4 4 11 6 9 11 7 17 19 12 18 17 18 13 6 15 18 20 18 18 17 18 18 20 19 19 20 18 18 18 18 17 18 21 21 16
5 6 4 6 6 7 1 2 5 3 7 9 10 12 14 16 17 24 21 18 7 5 10 9 11 13 17 18 19 21 22 22 23 22 23 22 25 23 22 22 22 20 19 17 16
2 1 3 4 4 4 2 4 8 13 9 9 12 17 17 18 17 21 21 20 14 6 4 6 6 8 14 10 12 15 17 18 19 21 18 20 19 19 21 19 18 18 17 17 16
Wind_Direction
350 346 344 342 338 336 336 333 328 327 327 323 322 320 320 323 307 266 278 11 329 320 303 278 252 219 224 222 230 237 241 241 243 230 253 260 255 247 255 253 210 281 90 25 51
344 341 338 336 334 333 331 327 323 322 322 320 318 315 318 325 304 266 68 15 355 328 274 234 228 208 213 218 211 218 229 243 251 255 248 245 253 256 246 229 223 214 198 47 69
341 339 338 335 333 331 328 324 319 319 317 316 309 309 313 310 259 96 69 350 337 309 306 279 246 232 225 221 218 221 242 239 242 246 256 263 258 248 243 247 237 225 230 236 315
342 341 339 336 333 330 327 324 321 318 313 306 304 305 311 279 346 101 6 344 324 294 277 272 236 224 231 230 224 239 247 247 255 242 245 256 265 261 256 257 258 225 261 288 286
342 340 338 334 331 328 324 321 320 316 308 302 295 302 285 229 57 123 310 349 314 313 274 269 250 231 236 237 234 237 242 245 243 260 254 261 256 257 255 251 252 261 264 266 278
343 340 338 334 330 326 321 318 317 311 299 289 273 275 274 94 33 328 314 301 304 320 310 253 255 268 279 257 245 244 244 249 252 236 243 251 257 257 248 253 258 256 258 259 256
344 340 337 335 330 325 321 320 320 307 277 270 232 257 265 47 317 320 298 315 308 294 299 294 259 249 264 255 253 256 259 262 242 242 238 240 265 249 246 251 255 250 250 254 256
339 338 337 333 329 324 320 321 317 302 261 193 194 250 287 129 329 288 334 324 202 271 272 289 249 253 252 269 278 260 245 245 235 229 241 224 255 258 226 233 245 248 250 253 252
336 337 336 335 332 328 324 321 314 154 138 156 212 272 108 142 332 2 316 316 318 284 228 271 240 241 237 235 251 240 243 235 243 229 222 209 241 250 259 242 231 244 245 250 253
338 335 332 332 328 325 325 313 132 151 174 217 239 235 167 342 342 325 343 324 316 304 261 233 234 241 229 230 237 235 236 245 257 233 221 224 244 250 244 235 246 241 244 247 251
336 334 330 325 322 321 316 215 225 177 227 313 337 309 317 330 313 301 311 302 293 267 271 247 254 246 256 252 249 261 268 267 254 248 255 225 239 245 244 253 248 252 248 249 250
334 332 327 321 317 315 279 24 45 350 295 278 268 262 276 306 299 324 296 296 305 287 288 252 249 264 280 282 270 250 253 256 261 284 245 246 242 245 249 250 251 250 251 256 260
335 332 324 321 314 283 6 57 73 327 270 354 238 281 324 246 289 300 273 302 284 285 280 273 269 283 281 270 258 261 253 251 253 269 238 255 252 249 243 245 253 258 258 260 261
337 333 328 314 280 357 105 104 316 296 263 124 182 145 291 318 255 316 236 293 272 285 300 290 287 268 259 263 264 260 252 255 249 244 242 218 254 240 231 238 242 247 248 255 257
340 338 333 293 8 321 58 320 321 231 257 98 160 5 311 287 304 118 284 281 277 296 292 294 289 259 252 257 264 261 252 249 240 240 249 246 252 253 261 254 252 255 255 257 263
340 339 319 163 170 41 311 300 213 230 99 155 270 317 314 322 301 305 312 201 277 287 275 278 276 262 261 269 292 251 256 239 247 237 229 236 242 252 252 254 249 249 250 259 258
338 337 268 287 26 323 309 212 243 277 117 64 330 325 311 296 309 337 331 310 329 318 334 310 285 275 233 259 273 244 244 230 219 229 245 226 228 239 244 334 296 251 233 288 287
333 312 159 353 322 301 250 239 281 62 345 347 319 309 293 9 349 333 321 315 104 310 300 328 325 14 240 227 255 245 231 231 223 224 232 231 235 223 237 252 206 277 269 268 342
314 181 202 39 319 279 271 260 359 9 358 324 312 301 46 308 321 311 323 314 343 348 334 311 286 271 246 260 266 252 250 241 265 280 246 216 217 251 226 216 203 184 203 345 353
312 244 71 337 295 266 268 328 317 340 318 303 307 303 320 327 313 325 322 339 311 299 331 309 299 270 277 259 252 245 265 270 243 252 240 236 208 224 214 232 235 158 77 10 6
266 228 45 337 263 276 294 359 305 334 323 313 313 298 312 314 299 303 278 294 282 307 315 296 278 290 245 228 237 284 225 213 264 261 257 221 219 210 241 188 142 107 24 18 1
314 241 33 318 261 311 310 346 357 286 285 290 281 282 277 307 296 292 286 276 302 315 301 300 290 284 281 232 177 241 226 324 266 230 253 278 68 100 151 118 111 17 14 2 354
336 304 55 289 342 348 339 297 259 296 315 301 305 286 298 291 301 292 288 301 308 304 319 351 258 292 283 179 205 236 262 260 247 275 276 256 234 138 152 147 70 1 347 339 343
300 319 118 75 123 326 345 354 324 314 288 254 290 274 276 292 278 269 285 285 301 291 288 305 264 260 282 306 314 292 282 271 278 265 261 244 266 187 203 300 325 328 318 319 325
347 45 5 327 38 336 297 284 303 311 280 298 275 254 296 279 301 284 300 306 283 272 262 256 265 269 269 271 280 276 268 262 256 257 265 267 268 267 281 297 312 303 299 299 312
348 342 344 295 298 312 211 272 306 310 302 289 275 301 305 286 283 289 299 302 271 323 252 228 255 277 293 284 270 271 267 260 253 249 254 258 266 274 278 281 280 287 290 303 311
51 305 283 287 288 308 338 327 306 309 288 257 288 295 292 292 309 296 288 280 253 223 227 279 270 282 266 283 295 268 263 252 254 249 255 256 260 263 265 270 276 285 290 297 299